EW6393 Weather Reports


Display with metric or nautical units.
time (UTC)temp
F
wind
direction
speed
MPH
gust
MPH
rain 1hr
in
rain 24hr
in
rain mn
in
humidity
%
barometer
mb
20260906111111 68 58 0.0 1.0 0.00 0.00 0.00 34 1017.6
20260906110619 69 58 0.0 2.0 0.00 0.00 0.00 33 1017.5
20260906110121 70 58 0.0 2.0 0.00 0.00 0.00 32 1017.5
20260906105630 70 68 1.0 2.0 0.00 0.00 0.00 31 1017.5
20260906105132 70 56 0.0 1.0 0.00 0.00 0.00 31 1017.5
20260906104619 71 56 0.0 2.0 0.00 0.00 0.00 30 1017.5
20260906104121 72 56 0.0 2.0 0.00 0.00 0.00 29 1017.5
20260906103630 73 283 0.0 4.0 0.00 0.00 0.00 27 1017.5
20260906103133 74 270 0.0 6.0 0.00 0.00 0.00 26 1017.5
20260906102614 75 164 2.0 7.0 0.00 0.00 0.00 25 1017.4
20260906102123 75 150 4.0 10.0 0.00 0.00 0.00 25 1017.4
20260906101624 75 196 3.0 10.0 0.00 0.00 0.00 25 1017.3
20260906101133 75 160 2.0 9.0 0.00 0.00 0.00 24 1017.2
20260906100614 75 132 5.0 9.0 0.00 0.00 0.00 24 1017.2
20260906100116 75 129 4.0 10.0 0.00 0.00 0.00 24 1017.1
20260906095624 75 139 4.0 10.0 0.00 0.00 0.00 23 1017.2
20260906095126 75 151 4.0 12.0 0.00 0.00 0.00 23 1017.2
20260906094635 75 148 4.0 12.0 0.00 0.00 0.00 23 1017.1
20260906094117 75 193 5.0 8.0 0.00 0.00 0.00 23 1017.0
20260906093639 74 142 4.0 9.0 0.00 0.00 0.00 23 1017.1
20260906093127 74 136 3.0 9.0 0.00 0.00 0.00 24 1017.0
20260906092629 74 169 3.0 6.0 0.00 0.00 0.00 24 1017.1
20260906092112 74 99 2.0 5.0 0.00 0.00 0.00 24 1017.0
20260906091613 73 108 1.0 3.0 0.00 0.00 0.00 24 1017.0
20260906091121 74 154 1.0 8.0 0.00 0.00 0.00 24 1017.1
20260906090623 74 123 2.0 8.0 0.00 0.00 0.00 24 1017.2
20260906090132 73 79 1.0 6.0 0.00 0.00 0.00 25 1017.2
20260906085614 73 101 0.0 6.0 0.00 0.00 0.00 24 1017.3
20260906085122 73 192 2.0 3.0 0.00 0.00 0.00 24 1017.2
20260906084624 73 100 1.0 4.0 0.00 0.00 0.00 25 1017.2
20260906084153 73 110 1.0 4.0 0.00 0.00 0.00 25 1017.2
20260906083614 73 112 0.0 1.0 0.00 0.00 0.00 26 1017.2
20260906083116 73 144 0.0 3.0 0.00 0.00 0.00 25 1017.1
20260906082645 72 94 2.0 3.0 0.00 0.00 0.00 27 1017.2
20260906082126 72 68 0.0 2.0 0.00 0.00 0.00 28 1017.1
20260906081635 71 97 1.0 2.0 0.00 0.00 0.00 27 1017.1
20260906081116 72 60 0.0 1.0 0.00 0.00 0.00 28 1017.1
20260906080618 72 60 0.0 2.0 0.00 0.00 0.00 27 1017.1
20260906080144 73 60 1.0 3.0 0.00 0.00 0.00 28 1017.2
20260906075632 73 67 2.0 2.0 0.00 0.00 0.00 27 1017.2
20260906075113 73 70 0.0 2.0 0.00 0.00 0.00 27 1017.2
20260906074615 73 69 1.0 2.0 0.00 0.00 0.00 27 1017.2
20260906074124 74 70 1.0 2.0 0.00 0.00 0.00 26 1017.2
20260906073626 74 152 0.0 2.0 0.00 0.00 0.00 25 1017.1
20260906073134 75 152 0.0 3.0 0.00 0.00 0.00 24 1017.1
20260906072616 75 105 1.0 3.0 0.00 0.00 0.00 24 1017.0
20260906072118 75 137 1.0 4.0 0.00 0.00 0.00 24 1017.0
20260906071620 75 151 1.0 4.0 0.00 0.00 0.00 24 1017.0
20260906071136 76 206 1.0 6.0 0.00 0.00 0.00 24 1017.0
20260906070617 76 175 3.0 6.0 0.00 0.00 0.00 23 1017.0
20260906070126 76 121 2.0 4.0 0.00 0.00 0.00 23 1017.0
20260906065628 76 213 1.0 3.0 0.00 0.00 0.00 24 1017.0
20260906065130 77 210 1.0 4.0 0.00 0.00 0.00 23 1017.1
20260906064612 77 233 0.0 7.0 0.00 0.00 0.00 23 1017.0
20260906064121 77 233 2.0 7.0 0.00 0.00 0.00 23 1017.0
20260906063650 78 143 0.0 7.0 0.00 0.00 0.00 22 1016.9
20260906063131 78 134 2.0 10.0 0.00 0.00 0.00 22 1016.9
20260906062613 77 149 3.0 10.0 0.00 0.00 0.00 22 1016.8
20260906062115 78 116 1.0 7.0 0.00 0.00 0.00 22 1016.9
20260906061624 78 211 2.0 6.0 0.00 0.00 0.00 21 1016.7
20260906061126 78 217 2.0 7.0 0.00 0.00 0.00 20 1016.7
20260906060635 78 207 3.0 13.0 0.00 0.00 0.00 20 1016.7
20260906060117 79 229 2.0 13.0 0.00 0.00 0.00 20 1016.7
20260906055619 79 126 3.0 8.0 0.00 0.00 0.00 19 1016.6
20260906055129 79 178 4.0 8.0 0.00 0.00 0.00 19 1016.5
20260906054629 79 155 3.0 14.0 0.00 0.00 0.00 19 1016.5
20260906054112 79 131 5.0 14.0 0.00 0.00 0.00 18 1016.5
20260906053640 79 134 6.0 11.0 0.00 0.00 0.00 19 1016.5
20260906053122 78 124 3.0 13.0 0.00 0.00 0.00 19 1016.5
20260906052623 78 147 3.0 13.0 0.00 0.00 0.00 19 1016.5
20260906052132 78 154 3.0 6.0 0.00 0.00 0.00 19 1016.5
20260906051634 78 112 2.0 7.0 0.00 0.00 0.00 20 1016.5
20260906051121 78 73 2.0 6.0 0.00 0.00 0.00 20 1016.5
20260906050625 78 88 2.0 6.0 0.00 0.00 0.00 19 1016.5
20260906050134 78 145 2.0 5.0 0.00 0.00 0.00 19 1016.5
20260906045614 78 111 2.0 5.0 0.00 0.00 0.00 19 1016.5
20260906045115 78 102 0.0 5.0 0.00 0.00 0.00 19 1016.6
20260906044624 78 163 1.0 5.0 0.00 0.00 0.00 19 1016.5
20260906044126 78 91 2.0 7.0 0.00 0.00 0.00 19 1016.6
20260906043628 79 73 2.0 9.0 0.00 0.00 0.00 19 1016.5
20260906043117 78 125 3.0 7.0 0.00 0.00 0.00 18 1016.5
20260906042618 78 108 3.0 7.0 0.00 0.00 0.00 18 1016.5
20260906042127 78 132 3.0 6.0 0.00 0.00 0.00 19 1016.4
20260906041649 78 144 1.0 6.0 0.00 0.00 0.00 18 1016.4
20260906041136 78 101 1.0 5.0 0.00 0.00 0.00 19 1016.3
20260906040617 79 69 2.0 5.0 0.00 0.00 0.00 19 1016.3
20260906040126 79 99 2.0 5.0 0.00 0.00 0.00 19 1016.3
20260906035648 79 90 2.0 6.0 0.00 0.00 0.00 19 1016.3
20260906035136 79 212 1.0 6.0 0.00 0.00 0.00 19 1016.3
20260906034638 79 151 2.0 7.0 0.00 0.00 0.00 19 1016.1
20260906034126 80 102 1.0 9.0 0.00 0.00 0.00 18 1016.2
20260906033629 79 136 2.0 9.0 0.00 0.00 0.00 19 1016.0
20260906033158 79 120 1.0 4.0 0.00 0.00 0.00 19 1016.0
20260906032619 80 109 2.0 5.0 0.00 0.00 0.00 19 1016.0
20260906032121 80 169 2.0 5.0 0.00 0.00 0.00 19 1016.0
20260906031623 80 107 2.0 4.0 0.00 0.00 0.00 18 1015.8
20260906031133 80 137 1.0 4.0 0.00 0.00 0.00 18 1015.8
20260906030614 80 101 2.0 4.0 0.00 0.00 0.00 18 1015.8
20260906030122 80 147 2.0 5.0 0.00 0.00 0.00 19 1015.7
20260906025623 81 120 2.0 6.0 0.00 0.00 0.00 18 1015.7
20260906025133 81 115 4.0 6.0 0.00 0.00 0.00 18 1015.5
20260906024635 80 113 1.0 4.0 0.00 0.00 0.00 19 1015.5
20260906024115 80 103 1.0 4.0 0.00 0.00 0.00 19 1015.4
20260906023622 80 136 1.0 4.0 0.00 0.00 0.00 19 1015.4
20260906023125 80 122 0.0 4.0 0.00 0.00 0.00 19 1015.2
20260906022634 81 102 2.0 4.0 0.00 0.00 0.00 19 1015.1
20260906022114 81 156 2.0 5.0 0.00 0.00 0.00 18 1015.0
20260906021635 81 139 3.0 5.0 0.00 0.00 0.00 19 1015.0
20260906021121 81 205 1.0 5.0 0.00 0.00 0.00 19 1015.0
20260906020622 81 117 1.0 5.0 0.00 0.00 0.00 19 1015.0
20260906020131 82 113 1.0 5.0 0.00 0.00 0.00 19 1014.8
20260906015613 82 193 1.0 5.0 0.00 0.00 0.00 18 1014.9
20260906015113 83 114 1.0 1.0 0.00 0.00 0.00 18 1014.9
20260906014622 84 123 0.0 3.0 0.00 0.00 0.00 18 1014.9
20260906014123 85 195 0.0 3.0 0.00 0.00 0.00 18 1014.8
20260906013633 86 170 0.0 4.0 0.00 0.00 0.00 17 1014.7
20260906013115 87 204 2.0 5.0 0.00 0.00 0.00 16 1014.7
20260906012637 87 154 2.0 5.0 0.00 0.00 0.00 15 1014.7
20260906012125 88 188 1.0 3.0 0.00 0.00 0.00 16 1014.7
20260906011627 88 172 1.0 4.0 0.00 0.00 0.00 16 1014.9
20260906011115 88 204 2.0 9.0 0.00 0.00 0.00 16 1014.9
20260906010616 87 199 4.0 9.0 0.00 0.00 0.00 15 1014.9
20260906010123 88 188 2.0 9.0 0.00 0.00 0.00 15 1014.9
20260906005624 88 233 2.0 9.0 0.00 0.00 0.00 15 1014.9
20260906005154 89 167 2.0 7.0 0.00 0.00 0.00 15 1014.9
20260906004615 89 186 1.0 3.0 0.00 0.00 0.00 15 1014.8
20260906004116 89 158 2.0 5.0 0.00 0.00 0.00 15 1014.9
20260906003624 88 206 1.0 8.0 0.00 0.00 0.00 14 1014.9
20260906003126 88 179 5.0 9.0 0.00 0.00 0.00 13 1014.9
20260906002628 88 150 3.0 9.0 0.00 0.00 0.00 14 1015.0
20260906002137 89 198 3.0 8.0 0.00 0.00 0.00 14 1014.9
20260906001618 88 193 3.0 8.0 0.00 0.00 0.00 13 1014.9
20260906001120 89 123 3.0 8.0 0.00 0.00 0.00 13 1015.0
20260906000630 89 192 2.0 7.0 0.00 0.00 0.00 14 1015.0
20260906000131 89 165 3.0 8.0 0.00 0.00 0.00 14 1015.0
20260905235612 89 184 4.0 8.0 0.00 0.00 0.00 13 1015.1
20260905235121 89 221 2.0 6.0 0.00 0.00 0.00 14 1015.1
20260905234622 89 218 2.0 11.0 0.00 0.00 0.00 13 1015.1
20260905234152 88 194 4.0 11.0 0.00 0.00 0.00 14 1015.2
20260905233612 89 172 6.0 10.0 0.00 0.00 0.00 13 1015.2
20260905233114 89 186 3.0 10.0 0.00 0.00 0.00 14 1015.3
20260905232621 90 167 1.0 6.0 0.00 0.00 0.00 14 1015.2
20260905232122 89 15 2.0 9.0 0.00 0.00 0.00 14 1015.2
20260905231624 89 186 5.0 9.0 0.00 0.00 0.00 12 1015.4
20260905231133 89 214 3.0 9.0 0.00 0.00 0.00 13 1015.4
20260905230614 89 212 3.0 6.0 0.00 0.00 0.00 13 1015.4
20260905230114 89 203 2.0 8.0 0.00 0.00 0.00 14 1015.4
20260905225623 89 147 3.0 9.0 0.00 0.00 0.00 14 1015.4
20260905225125 88 306 3.0 9.0 0.00 0.00 0.00 14 1015.4
20260905224635 88 188 4.0 12.0 0.00 0.00 0.00 14 1015.5
20260905224114 89 125 4.0 10.0 0.00 0.00 0.00 14 1015.5
20260905223615 88 306 3.0 12.0 0.00 0.00 0.00 14 1015.5
20260905223123 88 118 4.0 14.0 0.00 0.00 0.00 14 1015.6
20260905222624 88 98 4.0 14.0 0.00 0.00 0.00 14 1015.6
20260905222134 88 212 3.0 11.0 0.00 0.00 0.00 16 1015.6
20260905221614 87 235 4.0 11.0 0.00 0.00 0.00 15 1015.7
20260905221115 87 168 6.0 12.0 0.00 0.00 0.00 15 1015.7
20260905220614 87 158 6.0 13.0 0.00 0.00 0.00 15 1015.7
20260905220123 87 141 4.0 13.0 0.00 0.00 0.00 16 1015.8
20260905215631 87 135 6.0 12.0 0.00 0.00 0.00 16 1015.9
20260905215112 87 169 5.0 12.0 0.00 0.00 0.00 15 1015.9
20260905214614 87 183 7.0 14.0 0.00 0.00 0.00 15 1016.2
20260905214114 87 129 4.0 13.0 0.00 0.00 0.00 16 1016.1
20260905213624 88 129 6.0 13.0 0.00 0.00 0.00 15 1016.2
20260905213126 87 145 5.0 12.0 0.00 0.00 0.00 17 1016.2
20260905212635 87 131 6.0 12.0 0.00 0.00 0.00 16 1016.3
20260905212115 87 226 3.0 13.0 0.00 0.00 0.00 16 1016.3
20260905211624 87 18 4.0 13.0 0.00 0.00 0.00 16 1016.4
20260905211134 87 268 5.0 12.0 0.00 0.00 0.00 15 1016.5
20260905210612 87 113 4.0 10.0 0.00 0.00 0.00 16 1016.4
20260905210122 87 203 5.0 12.0 0.00 0.00 0.00 17 1016.5
20260905205621 87 220 4.0 14.0 0.00 0.00 0.00 16 1016.6
20260905205129 87 187 6.0 14.0 0.00 0.00 0.00 15 1016.7
20260905204630 87 353 3.0 12.0 0.00 0.00 0.00 17 1016.7
20260905204131 86 136 4.0 12.0 0.00 0.00 0.00 17 1016.8
20260905203612 87 130 4.0 12.0 0.00 0.00 0.00 16 1016.8
20260905203120 87 205 5.0 12.0 0.00 0.00 0.00 17 1016.8
20260905202622 86 217 3.0 10.0 0.00 0.00 0.00 17 1016.8
20260905202150 86 218 3.0 7.0 0.00 0.00 0.00 18 1016.8
20260905201657 86 163 3.0 17.0 0.00 0.00 0.00 17 1017.0
20260905201117 85 135 5.0 19.0 0.00 0.00 0.00 17 1017.1
20260905200619 86 154 3.0 10.0 0.00 0.00 0.00 18 1017.1
20260905200126 86 237 6.0 13.0 0.00 0.00 0.00 17 1017.2
20260905195626 86 264 4.0 11.0 0.00 0.00 0.00 17 1017.2
20260905195126 85 183 3.0 9.0 0.00 0.00 0.00 18 1017.2
20260905194615 85 108 4.0 11.0 0.00 0.00 0.00 18 1017.2
20260905194117 84 213 4.0 15.0 0.00 0.00 0.00 18 1017.2
20260905193626 85 213 6.0 15.0 0.00 0.00 0.00 18 1017.2
20260905193127 84 214 3.0 14.0 0.00 0.00 0.00 18 1017.3
20260905192636 84 188 4.0 14.0 0.00 0.00 0.00 19 1017.4
20260905192115 84 202 6.0 16.0 0.00 0.00 0.00 18 1017.5
20260905191637 84 192 8.0 16.0 0.00 0.00 0.00 17 1017.6
20260905191143 84 201 2.0 8.0 0.00 0.00 0.00 20 1017.7
20260905190624 84 13 2.0 14.0 0.00 0.00 0.00 20 1017.8
20260905190112 83 2 3.0 14.0 0.00 0.00 0.00 19 1017.9
20260905185614 83 163 6.0 13.0 0.00 0.00 0.00 19 1017.9
20260905185143 83 126 5.0 13.0 0.00 0.00 0.00 18 1018.0
20260905184623 83 212 5.0 13.0 0.00 0.00 0.00 18 1018.0
20260905184132 83 146 6.0 13.0 0.00 0.00 0.00 18 1018.1
20260905183613 83 153 4.0 13.0 0.00 0.00 0.00 20 1018.2
20260905183113 83 184 4.0 13.0 0.00 0.00 0.00 20 1018.3
20260905182614 83 213 5.0 13.0 0.00 0.00 0.00 19 1018.3
20260905182123 83 197 2.0 12.0 0.00 0.00 0.00 21 1018.4
20260905181623 83 152 7.0 12.0 0.00 0.00 0.00 18 1018.3
20260905181132 83 310 2.0 6.0 0.00 0.00 0.00 20 1018.4
20260905180614 83 20 2.0 10.0 0.00 0.00 0.00 21 1018.5
20260905180115 82 297 2.0 10.0 0.00 0.00 0.00 20 1018.6
20260905175624 82 207 4.0 12.0 0.00 0.00 0.00 19 1018.6
20260905175124 82 195 4.0 12.0 0.00 0.00 0.00 20 1018.6
20260905174633 82 203 3.0 10.0 0.00 0.00 0.00 20 1018.7
20260905174115 81 232 5.0 11.0 0.00 0.00 0.00 19 1018.7
20260905173616 81 128 3.0 6.0 0.00 0.00 0.00 20 1018.8
20260905173117 81 20 2.0 12.0 0.00 0.00 0.00 20 1018.7
20260905172625 80 205 4.0 15.0 0.00 0.00 0.00 19 1018.8
20260905172126 80 185 4.0 15.0 0.00 0.00 0.00 20 1018.8
20260905171635 80 205 4.0 11.0 0.00 0.00 0.00 20 1018.9
20260905171116 81 150 2.0 11.0 0.00 0.00 0.00 20 1018.9
20260905170618 81 256 4.0 8.0 0.00 0.00 0.00 20 1019.0
20260905170125 81 254 2.0 8.0 0.00 0.00 0.00 21 1019.0
20260905165627 81 226 3.0 8.0 0.00 0.00 0.00 21 1018.9
20260905165112 80 197 3.0 8.0 0.00 0.00 0.00 20 1018.9
20260905164620 80 293 3.0 9.0 0.00 0.00 0.00 21 1018.9
20260905164136 80 180 3.0 9.0 0.00 0.00 0.00 22 1018.9
20260905163623 80 147 3.0 9.0 0.00 0.00 0.00 21 1018.9
20260905163124 80 240 3.0 12.0 0.00 0.00 0.00 21 1018.9
20260905162626 80 211 3.0 12.0 0.00 0.00 0.00 21 1018.9
20260905162133 80 195 5.0 9.0 0.00 0.00 0.00 21 1018.9
20260905161636 80 140 2.0 8.0 0.00 0.00 0.00 23 1018.9
20260905161122 79 214 2.0 8.0 0.00 0.00 0.00 21 1018.9
20260905160622 79 144 2.0 9.0 0.00 0.00 0.00 22 1018.9
20260905160121 79 203 4.0 9.0 0.00 0.00 0.00 22 1019.0
20260905155615 79 296 0.0 3.0 0.00 0.00 0.00 23 1018.8
20260905155116 79 222 1.0 5.0 0.00 0.00 0.00 24 1018.8
20260905154618 78 198 1.0 5.0 0.00 0.00 0.00 24 1018.8
20260905154125 78 129 1.0 2.0 0.00 0.00 0.00 26 1018.9
20260905153626 78 293 1.0 4.0 0.00 0.00 0.00 25 1018.9
20260905153136 77 238 1.0 6.0 0.00 0.00 0.00 25 1018.9
20260905152615 78 148 3.0 6.0 0.00 0.00 0.00 24 1018.9
20260905152114 77 155 0.0 4.0 0.00 0.00 0.00 25 1018.8
20260905151616 77 218 2.0 5.0 0.00 0.00 0.00 25 1018.9
20260905151144 77 123 3.0 5.0 0.00 0.00 0.00 25 1018.9
20260905150625 76 151 1.0 4.0 0.00 0.00 0.00 24 1018.8
20260905150113 76 201 1.0 4.0 0.00 0.00 0.00 25 1018.8
20260905145615 76 159 1.0 4.0 0.00 0.00 0.00 24 1018.8
20260905145117 76 145 1.0 5.0 0.00 0.00 0.00 25 1018.9
20260905144626 75 209 2.0 5.0 0.00 0.00 0.00 24 1018.7
20260905144155 75 140 1.0 4.0 0.00 0.00 0.00 24 1018.7
20260905143636 74 142 1.0 5.0 0.00 0.00 0.00 25 1018.6
20260905143116 74 112 2.0 5.0 0.00 0.00 0.00 26 1018.6
20260905142626 72 111 1.0 2.0 0.00 0.00 0.00 26 1018.5
20260905142128 71 160 0.0 3.0 0.00 0.00 0.00 25 1018.5
20260905141637 71 147 1.0 3.0 0.00 0.00 0.00 27 1018.5
20260905141118 70 75 1.0 1.0 0.00 0.00 0.00 26 1018.4
20260905140619 71 117 0.0 2.0 0.00 0.00 0.00 25 1018.4
20260905140127 72 110 1.0 5.0 0.00 0.00 0.00 25 1018.4
20260905135629 71 127 2.0 8.0 0.00 0.00 0.00 24 1018.3
20260905135138 71 141 1.0 8.0 0.00 0.00 0.00 24 1018.3
20260905134639 71 98 1.0 3.0 0.00 0.00 0.00 26 1018.3
20260905134143 72 90 1.0 4.0 0.00 0.00 0.00 24 1018.1
20260905133625 71 85 2.0 7.0 0.00 0.00 0.00 25 1018.0
20260905133133 70 53 2.0 7.0 0.00 0.00 0.00 24 1018.0
20260905132619 70 58 0.0 2.0 0.00 0.00 0.00 26 1018.0
20260905132136 70 68 0.0 2.0 0.00 0.00 0.00 26 1017.9
20260905131624 70 56 1.0 2.0 0.00 0.00 0.00 25 1017.7
20260905131122 70 65 1.0 5.0 0.00 0.00 0.00 24 1017.7
20260905130631 70 208 1.0 5.0 0.00 0.00 0.00 24 1017.6
20260905130200 70 64 2.0 5.0 0.00 0.00 0.00 24 1017.6
20260905125636 70 113 1.0 3.0 0.00 0.00 0.00 25 1017.5
20260905125123 70 64 0.0 2.0 0.00 0.00 0.00 25 1017.5
20260905124625 70 69 1.0 2.0 0.00 0.00 0.00 24 1017.3
20260905124127 71 77 1.0 5.0 0.00 0.00 0.00 24 1017.3
20260905123635 71 141 1.0 5.0 0.00 0.00 0.00 23 1017.2
20260905123118 71 151 1.0 6.0 0.00 0.00 0.00 23 1017.1
20260905122620 71 139 2.0 6.0 0.00 0.00 0.00 23 1017.1
20260905122148 71 125 1.0 4.0 0.00 0.00 0.00 24 1017.1
20260905121656 72 123 1.0 7.0 0.00 0.00 0.00 23 1017.0
20260905121115 72 105 1.0 5.0 0.00 0.00 0.00 24 1017.1
20260905120643 72 120 3.0 6.0 0.00 0.00 0.00 23 1017.1
20260905120122 72 137 2.0 6.0 0.00 0.00 0.00 23 1017.1
20260905115631 72 198 3.0 6.0 0.00 0.00 0.00 23 1017.2
20260905115131 72 102 2.0 4.0 0.00 0.00 0.00 23 1017.2
20260905114613 72 86 1.0 6.0 0.00 0.00 0.00 23 1017.2
20260905114121 72 144 2.0 6.0 0.00 0.00 0.00 23 1017.2
20260905113622 72 121 2.0 6.0 0.00 0.00 0.00 23 1017.1
20260905113122 72 133 2.0 6.0 0.00 0.00 0.00 23 1017.1
20260905112632 72 123 3.0 8.0 0.00 0.00 0.00 23 1017.2
20260905112114 73 241 3.0 8.0 0.00 0.00 0.00 23 1017.2
20260905111615 73 146 2.0 6.0 0.00 0.00 0.00 24 1017.1